PRLFR SBBH-SBPS

Flight info

Callsign PRLFR
Flight time 1h 30m
Altitude 27000
Route PANAS UZ16 OSUNO
Aircraft TBM8/L-SDE3GHIJ2J3J5M1RVWXYZ/LB1

Departure

Time 2026-04-22 22:46
Airport Pampulha - Carlos Drummond de Andrade Airport (SBBH)

Arrival

Time 2026-04-23 00:16
Airport Porto Seguro International Airport (SBPS)
Time Latitude Longitude Altitude Speed Heading
2026-04-22 21:56 -19.85408 -43.94664 2617 ft 0 kts 199°
2026-04-22 22:12 -19.85404 -43.94658 2617 ft 2 kts 253°
2026-04-22 22:12 -19.85406 -43.94644 2617 ft 1 kts 292°
2026-04-22 22:12 -19.85407 -43.94643 2617 ft 0 kts 292°
2026-04-22 22:31 -19.85406 -43.94645 2617 ft 0 kts 294°
2026-04-22 22:32 -19.85404 -43.94648 2617 ft 0 kts 316°
2026-04-22 22:32 -19.85395 -43.94653 2616 ft 1 kts 342°
2026-04-22 22:32 -19.85384 -43.94656 2616 ft 4 kts 341°
2026-04-22 22:32 -19.85369 -43.94680 2616 ft 7 kts 289°
2026-04-22 22:33 -19.85344 -43.94749 2616 ft 10 kts 292°
2026-04-22 22:33 -19.85329 -43.94789 2616 ft 3 kts 289°
2026-04-22 22:33 -19.85318 -43.94819 2616 ft 8 kts 291°
2026-04-22 22:33 -19.85306 -43.94857 2616 ft 4 kts 290°
2026-04-22 22:34 -19.85294 -43.94896 2616 ft 6 kts 287°
2026-04-22 22:34 -19.85281 -43.94938 2616 ft 6 kts 288°
2026-04-22 22:34 -19.85271 -43.94973 2616 ft 5 kts 291°
2026-04-22 22:34 -19.85259 -43.95013 2616 ft 7 kts 287°
2026-04-22 22:35 -19.85250 -43.95044 2616 ft 4 kts 287°
2026-04-22 22:35 -19.85241 -43.95076 2617 ft 4 kts 287°
2026-04-22 22:35 -19.85228 -43.95095 2616 ft 5 kts 345°
2026-04-22 22:35 -19.85187 -43.95102 2613 ft 7 kts 352°
2026-04-22 22:36 -19.85141 -43.95109 2605 ft 9 kts 353°
2026-04-22 22:36 -19.85121 -43.95113 2601 ft 3 kts 328°
2026-04-22 22:36 -19.85113 -43.95162 2596 ft 11 kts 262°
2026-04-22 22:36 -19.85122 -43.95224 2586 ft 7 kts 259°
2026-04-22 22:37 -19.85128 -43.95259 2586 ft 4 kts 260°
2026-04-22 22:37 -19.85123 -43.95329 2586 ft 9 kts 294°
2026-04-22 22:37 -19.85104 -43.95385 2586 ft 11 kts 290°
2026-04-22 22:37 -19.85068 -43.95485 2584 ft 10 kts 290°
2026-04-22 22:38 -19.85055 -43.95522 2582 ft 3 kts 290°
2026-04-22 22:38 -19.85034 -43.95580 2586 ft 9 kts 293°
2026-04-22 22:38 -19.85013 -43.95638 2582 ft 12 kts 292°
2026-04-22 22:38 -19.84991 -43.95686 2584 ft 8 kts 306°
2026-04-22 22:39 -19.84934 -43.95749 2583 ft 9 kts 317°
2026-04-22 22:39 -19.84885 -43.95799 2586 ft 11 kts 315°
2026-04-22 22:39 -19.84854 -43.95847 2582 ft 7 kts 291°
2026-04-22 22:39 -19.84832 -43.95915 2586 ft 13 kts 289°
2026-04-22 22:40 -19.84799 -43.96003 2582 ft 0 kts 290°
2026-04-22 22:42 -19.84795 -43.96014 2582 ft 6 kts 291°
2026-04-22 22:43 -19.84781 -43.96048 2583 ft 4 kts 306°
2026-04-22 22:43 -19.84764 -43.96050 2586 ft 0 kts 20°
2026-04-22 22:43 -19.84743 -43.96044 2587 ft 3 kts
2026-04-22 22:43 -19.84721 -43.96031 2584 ft 2 kts 78°
2026-04-22 22:44 -19.84723 -43.96002 2587 ft 0 kts 107°
2026-04-22 22:45 -19.84767 -43.95880 2586 ft 43 kts 111°
2026-04-22 22:45 -19.84931 -43.95427 2585 ft 87 kts 111°
2026-04-22 22:45 -19.85182 -43.94706 2665 ft 114 kts 110°
2026-04-22 22:45 -19.85528 -43.93919 2950 ft 117 kts 114°
2026-04-22 22:46 -19.85940 -43.93138 3292 ft 126 kts 118°
2026-04-22 22:46 -19.86354 -43.92286 3620 ft 132 kts 116°
2026-04-22 22:46 -19.86629 -43.91257 3640 ft 163 kts 95°
2026-04-22 22:46 -19.86869 -43.90003 3596 ft 183 kts 109°
2026-04-22 22:47 -19.87343 -43.88690 3595 ft 192 kts 110°
2026-04-22 22:47 -19.87797 -43.87393 3669 ft 184 kts 109°
2026-04-22 22:47 -19.88228 -43.86172 3915 ft 170 kts 110°
2026-04-22 22:47 -19.88642 -43.85019 4167 ft 162 kts 110°
2026-04-22 22:48 -19.89040 -43.83902 4422 ft 160 kts 110°
2026-04-22 22:48 -19.89435 -43.82803 4685 ft 160 kts 111°
2026-04-22 22:48 -19.89835 -43.81691 4955 ft 160 kts 110°
2026-04-22 22:48 -19.90234 -43.80575 5216 ft 161 kts 110°
2026-04-22 22:49 -19.90629 -43.79473 5431 ft 162 kts 110°
2026-04-22 22:49 -19.91034 -43.78340 5622 ft 166 kts 111°
2026-04-22 22:49 -19.91451 -43.77178 5829 ft 167 kts 110°
2026-04-22 22:49 -19.91848 -43.76058 6166 ft 161 kts 110°
2026-04-22 22:50 -19.92235 -43.74964 6504 ft 155 kts 110°
2026-04-22 22:50 -19.92612 -43.73901 6824 ft 152 kts 111°
2026-04-22 22:50 -19.92861 -43.73203 7044 ft 150 kts 111°
2026-04-22 22:50 -19.93351 -43.71822 7469 ft 149 kts 111°
2026-04-22 22:51 -19.93599 -43.71135 7681 ft 149 kts 111°
2026-04-22 22:51 -19.93967 -43.70103 8025 ft 147 kts 112°
2026-04-22 22:51 -19.94325 -43.69086 8354 ft 149 kts 111°
2026-04-22 22:51 -19.94822 -43.67703 8773 ft 155 kts 112°
2026-04-22 22:52 -19.95090 -43.66969 8899 ft 162 kts 112°
2026-04-22 22:52 -19.95520 -43.65784 8993 ft 179 kts 111°
2026-04-22 22:52 -19.95988 -43.64486 9005 ft 196 kts 111°
2026-04-22 22:52 -19.96490 -43.63083 9004 ft 208 kts 111°
2026-04-22 22:53 -19.97008 -43.61619 9001 ft 216 kts 111°
2026-04-22 22:53 -19.97541 -43.60112 9001 ft 221 kts 111°
2026-04-22 22:53 -19.98087 -43.58591 9002 ft 220 kts 111°
2026-04-22 22:53 -19.98625 -43.57079 9003 ft 218 kts 111°
2026-04-22 22:54 -19.99003 -43.55504 9002 ft 219 kts 93°
2026-04-22 22:54 -19.98922 -43.53907 9001 ft 219 kts 85°
2026-04-22 22:54 -19.98792 -43.52274 8999 ft 219 kts 86°
2026-04-22 22:54 -19.98713 -43.50674 8997 ft 218 kts 88°
2026-04-22 22:55 -19.98638 -43.49065 8997 ft 218 kts 87°
2026-04-22 22:55 -19.98555 -43.47449 8996 ft 218 kts 87°
2026-04-22 22:55 -19.98392 -43.44299 9302 ft 206 kts 87°
2026-04-22 22:56 -19.98315 -43.42802 9495 ft 202 kts 87°
2026-04-22 22:56 -19.98237 -43.41319 9696 ft 201 kts 86°
2026-04-22 22:56 -19.98161 -43.39847 9899 ft 201 kts 87°
2026-04-22 22:56 -19.98087 -43.38343 10090 ft 202 kts 87°
2026-04-22 22:57 -19.98012 -43.36859 10271 ft 202 kts 87°
2026-04-22 22:57 -19.97936 -43.35365 10460 ft 203 kts 87°
2026-04-22 22:57 -19.97860 -43.33878 10640 ft 203 kts 87°
2026-04-22 22:57 -19.97782 -43.32372 10826 ft 203 kts 87°
2026-04-22 22:58 -19.97705 -43.30870 11013 ft 204 kts 87°
2026-04-22 22:58 -19.97627 -43.29356 11209 ft 204 kts 87°
2026-04-22 22:58 -19.97550 -43.27865 11401 ft 203 kts 87°
2026-04-22 22:58 -19.97472 -43.26367 11660 ft 200 kts 87°
2026-04-22 22:59 -19.97150 -43.24949 11929 ft 199 kts 62°
2026-04-22 22:59 -19.96381 -43.23735 12199 ft 196 kts 54°
2026-04-22 22:59 -19.95609 -43.22556 12465 ft 195 kts 56°
2026-04-22 22:59 -19.94852 -43.21342 12736 ft 194 kts 57°
2026-04-22 23:00 -19.94113 -43.20153 13010 ft 193 kts 57°
2026-04-22 23:00 -19.93376 -43.18971 13283 ft 193 kts 57°
2026-04-22 23:00 -19.92631 -43.17777 13565 ft 192 kts 57°
2026-04-22 23:00 -19.91895 -43.16598 13845 ft 192 kts 57°
2026-04-22 23:01 -19.91153 -43.15411 14103 ft 193 kts 57°
2026-04-22 23:01 -19.90417 -43.14231 14344 ft 193 kts 57°
2026-04-22 23:01 -19.89672 -43.13036 14593 ft 192 kts 57°
2026-04-22 23:01 -19.88938 -43.11860 14842 ft 191 kts 57°
2026-04-22 23:02 -19.88202 -43.10679 15098 ft 191 kts 58°
2026-04-22 23:02 -19.87467 -43.09498 15352 ft 192 kts 58°
2026-04-22 23:02 -19.86735 -43.08324 15608 ft 192 kts 58°
2026-04-22 23:02 -19.85990 -43.07130 15868 ft 192 kts 58°
2026-04-22 23:03 -19.85260 -43.05961 16127 ft 192 kts 58°
2026-04-22 23:03 -19.84513 -43.04766 16393 ft 192 kts 58°
2026-04-22 23:03 -19.83773 -43.03579 16657 ft 193 kts 58°
2026-04-22 23:03 -19.83031 -43.02388 16925 ft 193 kts 58°
2026-04-22 23:04 -19.82287 -43.01196 17196 ft 194 kts 58°
2026-04-22 23:04 -19.81551 -43.00017 17460 ft 194 kts 58°
2026-04-22 23:04 -19.80796 -42.98807 17747 ft 194 kts 59°
2026-04-22 23:04 -19.80054 -42.97619 18032 ft 194 kts 58°
2026-04-22 23:05 -19.79311 -42.96430 18305 ft 193 kts 59°
2026-04-22 23:05 -19.78567 -42.95241 18550 ft 193 kts 59°
2026-04-22 23:05 -19.77820 -42.94045 18800 ft 193 kts 59°
2026-04-22 23:05 -19.77081 -42.92863 19043 ft 192 kts 58°
2026-04-22 23:06 -19.76350 -42.91693 19288 ft 192 kts 58°
2026-04-22 23:06 -19.75609 -42.90510 19534 ft 191 kts 58°
2026-04-22 23:06 -19.74875 -42.89337 19775 ft 190 kts 58°
2026-04-22 23:06 -19.74141 -42.88164 19979 ft 192 kts 58°
2026-04-22 23:07 -19.73396 -42.86970 20163 ft 195 kts 58°
2026-04-22 23:07 -19.72642 -42.85763 20352 ft 197 kts 58°
2026-04-22 23:07 -19.71881 -42.84546 20540 ft 199 kts 57°
2026-04-22 23:07 -19.71105 -42.83308 20731 ft 202 kts 57°
2026-04-22 23:08 -19.70325 -42.82062 20924 ft 204 kts 57°
2026-04-22 23:08 -19.69540 -42.80809 21117 ft 206 kts 57°
2026-04-22 23:08 -19.68732 -42.79522 21309 ft 207 kts 57°
2026-04-22 23:08 -19.67932 -42.78244 21504 ft 209 kts 57°
2026-04-22 23:09 -19.67126 -42.76959 21696 ft 210 kts 57°
2026-04-22 23:09 -19.66313 -42.75663 21891 ft 211 kts 57°
2026-04-22 23:09 -19.65492 -42.74353 22089 ft 212 kts 57°
2026-04-22 23:09 -19.64673 -42.73047 22286 ft 213 kts 57°
2026-04-22 23:10 -19.63862 -42.71753 22481 ft 214 kts 57°
2026-04-22 23:10 -19.63036 -42.70437 22683 ft 214 kts 57°
2026-04-22 23:10 -19.62207 -42.69118 22884 ft 215 kts 57°
2026-04-22 23:10 -19.61373 -42.67790 23089 ft 215 kts 57°
2026-04-22 23:11 -19.60546 -42.66472 23291 ft 215 kts 57°
2026-04-22 23:11 -19.59715 -42.65149 23494 ft 215 kts 57°
2026-04-22 23:11 -19.58887 -42.63831 23690 ft 215 kts 57°
2026-04-22 23:11 -19.58061 -42.62517 23859 ft 215 kts 57°
2026-04-22 23:12 -19.57228 -42.61193 24027 ft 215 kts 56°
2026-04-22 23:12 -19.56403 -42.59879 24199 ft 214 kts 57°
2026-04-22 23:12 -19.55578 -42.58566 24369 ft 214 kts 56°
2026-04-22 23:12 -19.54747 -42.57247 24570 ft 213 kts 56°
2026-04-22 23:13 -19.53933 -42.55952 24743 ft 212 kts 56°
2026-04-22 23:13 -19.53110 -42.54646 24918 ft 212 kts 56°
2026-04-22 23:13 -19.52292 -42.53348 25094 ft 210 kts 56°
2026-04-22 23:13 -19.51482 -42.52061 25271 ft 209 kts 56°
2026-04-22 23:14 -19.50676 -42.50781 25449 ft 208 kts 56°
2026-04-22 23:14 -19.49874 -42.49507 25626 ft 206 kts 56°
2026-04-22 23:14 -19.49087 -42.48258 25802 ft 205 kts 56°
2026-04-22 23:14 -19.48301 -42.47010 25982 ft 203 kts 56°
2026-04-22 23:15 -19.47522 -42.45774 26166 ft 200 kts 56°
2026-04-22 23:15 -19.46738 -42.44531 26289 ft 202 kts 56°
2026-04-22 23:15 -19.45960 -42.43293 26400 ft 203 kts 56°
2026-04-22 23:15 -19.45169 -42.42036 26522 ft 204 kts 56°
2026-04-22 23:16 -19.44382 -42.40788 26641 ft 206 kts 56°
2026-04-22 23:16 -19.43585 -42.39526 26756 ft 207 kts 56°
2026-04-22 23:16 -19.42780 -42.38249 26877 ft 208 kts 56°
2026-04-22 23:16 -19.41975 -42.36972 26996 ft 210 kts 56°
2026-04-22 23:17 -19.41162 -42.35684 27095 ft 212 kts 56°
2026-04-22 23:17 -19.40324 -42.34351 27100 ft 220 kts 56°
2026-04-22 23:17 -19.39461 -42.32978 27108 ft 227 kts 57°
2026-04-22 23:17 -19.38580 -42.31578 27108 ft 234 kts 56°
2026-04-22 23:18 -19.37657 -42.30124 27109 ft 240 kts 56°
2026-04-22 23:18 -19.36712 -42.28629 27106 ft 246 kts 56°
2026-04-22 23:18 -19.35749 -42.27103 27105 ft 252 kts 57°
2026-04-22 23:18 -19.34762 -42.25544 27102 ft 258 kts 57°
2026-04-22 23:19 -19.33761 -42.23962 27104 ft 263 kts 57°
2026-04-22 23:19 -19.32727 -42.22328 27105 ft 267 kts 57°
2026-04-22 23:19 -19.31686 -42.20682 27105 ft 271 kts 57°
2026-04-22 23:19 -19.30625 -42.19006 27102 ft 275 kts 57°
2026-04-22 23:20 -19.29567 -42.17333 27102 ft 278 kts 57°
2026-04-22 23:20 -19.28481 -42.15619 27099 ft 281 kts 57°
2026-04-22 23:20 -19.27375 -42.13899 27100 ft 284 kts 53°
2026-04-22 23:20 -19.26093 -42.12320 27100 ft 286 kts 49°
2026-04-22 23:21 -19.24772 -42.10735 27101 ft 287 kts 49°
2026-04-22 23:21 -19.23454 -42.09123 27098 ft 289 kts 50°
2026-04-22 23:21 -19.22142 -42.07513 27100 ft 290 kts 50°
2026-04-22 23:21 -19.20800 -42.05879 27099 ft 292 kts 50°
2026-04-22 23:22 -19.19921 -42.04811 27099 ft 292 kts 50°
2026-04-22 23:22 -19.18590 -42.03190 27101 ft 293 kts 50°
2026-04-22 23:22 -19.17232 -42.01535 27094 ft 294 kts 50°
2026-04-22 23:22 -19.15888 -41.99899 27095 ft 295 kts 50°
2026-04-22 23:23 -19.14542 -41.98261 27097 ft 296 kts 50°
2026-04-22 23:23 -19.13185 -41.96614 27098 ft 297 kts 50°
2026-04-22 23:23 -19.11814 -41.94953 27098 ft 298 kts 50°
2026-04-22 23:23 -19.10446 -41.93297 27096 ft 298 kts 50°
2026-04-22 23:24 -19.09094 -41.91656 27098 ft 299 kts 50°
2026-04-22 23:24 -19.07726 -41.89999 27098 ft 299 kts 50°
2026-04-22 23:24 -19.06351 -41.88334 27097 ft 300 kts 50°
2026-04-22 23:24 -19.04976 -41.86668 27097 ft 300 kts 50°
2026-04-22 23:25 -19.03600 -41.84997 27097 ft 301 kts 50°
2026-04-22 23:25 -19.02238 -41.83344 27097 ft 301 kts 50°
2026-04-22 23:25 -19.00865 -41.81679 27096 ft 301 kts 50°
2026-04-22 23:25 -18.99494 -41.80016 27097 ft 301 kts 50°
2026-04-22 23:26 -18.98102 -41.78329 27094 ft 302 kts 50°
2026-04-22 23:26 -18.96733 -41.76669 27095 ft 302 kts 50°
2026-04-22 23:26 -18.95357 -41.75002 27094 ft 302 kts 50°
2026-04-22 23:26 -18.93967 -41.73319 27095 ft 302 kts 50°
2026-04-22 23:27 -18.92589 -41.71650 27093 ft 302 kts 50°
2026-04-22 23:27 -18.91202 -41.69971 27095 ft 302 kts 50°
2026-04-22 23:27 -18.89825 -41.68304 27090 ft 302 kts 50°
2026-04-22 23:27 -18.88431 -41.66618 27091 ft 302 kts 50°
2026-04-22 23:28 -18.87051 -41.64947 27088 ft 302 kts 50°
2026-04-22 23:28 -18.85666 -41.63274 27091 ft 302 kts 50°
2026-04-22 23:28 -18.84282 -41.61600 27091 ft 303 kts 50°
2026-04-22 23:28 -18.82897 -41.59927 27090 ft 303 kts 50°
2026-04-22 23:29 -18.81511 -41.58252 27091 ft 303 kts 50°
2026-04-22 23:29 -18.80117 -41.56567 27093 ft 303 kts 50°
2026-04-22 23:29 -18.78723 -41.54884 27092 ft 303 kts 50°
2026-04-22 23:29 -18.77345 -41.53221 27092 ft 303 kts 50°
2026-04-22 23:30 -18.75950 -41.51536 27094 ft 303 kts 50°
2026-04-22 23:30 -18.74565 -41.49865 27093 ft 303 kts 50°
2026-04-22 23:30 -18.73169 -41.48182 27096 ft 303 kts 50°
2026-04-22 23:30 -18.71776 -41.46501 27096 ft 303 kts 50°
2026-04-22 23:31 -18.70382 -41.44821 27098 ft 303 kts 50°
2026-04-22 23:31 -18.69006 -41.43164 27097 ft 303 kts 50°
2026-04-22 23:31 -18.67621 -41.41494 27096 ft 303 kts 50°
2026-04-22 23:31 -18.66221 -41.39808 27099 ft 302 kts 50°
2026-04-22 23:32 -18.64830 -41.38133 27100 ft 302 kts 50°
2026-04-22 23:32 -18.63431 -41.36449 27105 ft 303 kts 50°
2026-04-22 23:32 -18.62051 -41.34787 27100 ft 303 kts 50°
2026-04-22 23:32 -18.60664 -41.33119 27100 ft 303 kts 50°
2026-04-22 23:33 -18.59275 -41.31449 27102 ft 303 kts 50°
2026-04-22 23:33 -18.57884 -41.29777 27103 ft 303 kts 50°
2026-04-22 23:33 -18.56501 -41.28112 27099 ft 303 kts 50°
2026-04-22 23:33 -18.55110 -41.26441 27101 ft 303 kts 50°
2026-04-22 23:34 -18.53708 -41.24758 27101 ft 303 kts 50°
2026-04-22 23:34 -18.52322 -41.23093 27102 ft 303 kts 50°
2026-04-22 23:34 -18.50926 -41.21415 27099 ft 303 kts 50°
2026-04-22 23:34 -18.49526 -41.19735 27109 ft 303 kts 50°
2026-04-22 23:35 -18.48137 -41.18068 27108 ft 304 kts 50°
2026-04-22 23:35 -18.46746 -41.16398 27107 ft 304 kts 50°
2026-04-22 23:35 -18.45360 -41.14737 27109 ft 304 kts 51°
2026-04-22 23:35 -18.43968 -41.13066 27110 ft 304 kts 51°
2026-04-22 23:36 -18.42557 -41.11375 27107 ft 303 kts 50°
2026-04-22 23:36 -18.41167 -41.09709 27110 ft 304 kts 50°
2026-04-22 23:36 -18.39769 -41.08033 27110 ft 303 kts 50°
2026-04-22 23:36 -18.38389 -41.06380 27110 ft 303 kts 50°
2026-04-22 23:37 -18.37000 -41.04716 27110 ft 303 kts 50°
2026-04-22 23:37 -18.35608 -41.03049 27113 ft 303 kts 50°
2026-04-22 23:37 -18.34212 -41.01378 27111 ft 303 kts 50°
2026-04-22 23:37 -18.32819 -40.99710 27112 ft 303 kts 50°
2026-04-22 23:38 -18.31421 -40.98038 27110 ft 303 kts 50°
2026-04-22 23:38 -18.30029 -40.96372 27110 ft 303 kts 50°
2026-04-22 23:38 -18.28637 -40.94708 27111 ft 303 kts 50°
2026-04-22 23:38 -18.27233 -40.93030 27107 ft 303 kts 50°
2026-04-22 23:39 -18.25856 -40.91382 27079 ft 303 kts 51°
2026-04-22 23:39 -18.24461 -40.89717 27112 ft 302 kts 51°
2026-04-22 23:39 -18.23072 -40.88056 27107 ft 303 kts 51°
2026-04-22 23:39 -18.21670 -40.86380 27108 ft 303 kts 51°
2026-04-22 23:40 -18.20280 -40.84721 27109 ft 304 kts 51°
2026-04-22 23:40 -18.18872 -40.83039 27111 ft 304 kts 51°
2026-04-22 23:40 -18.17487 -40.81386 27119 ft 304 kts 51°
2026-04-22 23:40 -18.16084 -40.79711 27114 ft 304 kts 51°
2026-04-22 23:41 -18.14681 -40.78037 27114 ft 305 kts 51°
2026-04-22 23:41 -18.13273 -40.76356 27116 ft 305 kts 51°
2026-04-22 23:41 -18.11876 -40.74691 27110 ft 305 kts 51°
2026-04-22 23:41 -18.10459 -40.73001 27111 ft 305 kts 51°
2026-04-22 23:42 -18.09050 -40.71322 27111 ft 306 kts 51°
2026-04-22 23:42 -18.07658 -40.69663 27114 ft 306 kts 51°
2026-04-22 23:42 -18.06237 -40.67970 27109 ft 306 kts 51°
2026-04-22 23:42 -18.04843 -40.66310 27108 ft 306 kts 51°
2026-04-22 23:43 -18.03429 -40.64627 27114 ft 306 kts 51°
2026-04-22 23:43 -18.02027 -40.62958 27110 ft 306 kts 51°
2026-04-22 23:43 -18.00612 -40.61273 27113 ft 306 kts 51°
2026-04-22 23:43 -17.99199 -40.59592 27106 ft 306 kts 51°
2026-04-22 23:44 -17.97792 -40.57919 27111 ft 306 kts 51°
2026-04-22 23:44 -17.96389 -40.56250 27109 ft 306 kts 51°
2026-04-22 23:44 -17.94970 -40.54564 27109 ft 306 kts 51°
2026-04-22 23:44 -17.93576 -40.52906 27108 ft 306 kts 50°
2026-04-22 23:45 -17.92159 -40.51222 27108 ft 306 kts 50°
2026-04-22 23:45 -17.90743 -40.49541 27107 ft 306 kts 50°
2026-04-22 23:45 -17.89331 -40.47864 27116 ft 306 kts 50°
2026-04-22 23:45 -17.87939 -40.46211 27109 ft 306 kts 50°
2026-04-22 23:46 -17.86522 -40.44529 27111 ft 306 kts 50°
2026-04-22 23:46 -17.85121 -40.42867 27108 ft 306 kts 50°
2026-04-22 23:46 -17.83713 -40.41196 27108 ft 306 kts 50°
2026-04-22 23:46 -17.82303 -40.39524 27110 ft 305 kts 50°
2026-04-22 23:47 -17.80889 -40.37849 27111 ft 306 kts 50°
2026-04-22 23:47 -17.79479 -40.36177 27105 ft 305 kts 50°
2026-04-22 23:47 -17.78063 -40.34499 27122 ft 305 kts 50°
2026-04-22 23:47 -17.76653 -40.32830 27117 ft 305 kts 50°
2026-04-22 23:48 -17.75256 -40.31179 27117 ft 305 kts 50°
2026-04-22 23:48 -17.73840 -40.29506 27116 ft 305 kts 50°
2026-04-22 23:48 -17.72435 -40.27846 27122 ft 305 kts 50°
2026-04-22 23:48 -17.71027 -40.26183 27116 ft 305 kts 50°
2026-04-22 23:49 -17.69622 -40.24524 27119 ft 305 kts 50°
2026-04-22 23:49 -17.68213 -40.22860 27116 ft 305 kts 50°
2026-04-22 23:49 -17.66791 -40.21180 27017 ft 307 kts 50°
2026-04-22 23:49 -17.65367 -40.19483 26708 ft 311 kts 50°
2026-04-22 23:50 -17.63927 -40.17778 26378 ft 313 kts 50°
2026-04-22 23:50 -17.62488 -40.16094 26058 ft 314 kts 49°
2026-04-22 23:50 -17.61512 -40.14950 25844 ft 314 kts 49°
2026-04-22 23:50 -17.60050 -40.13226 25521 ft 314 kts 49°
2026-04-22 23:51 -17.58610 -40.11525 25210 ft 313 kts 49°
2026-04-22 23:51 -17.57168 -40.09826 24894 ft 312 kts 48°
2026-04-22 23:51 -17.55728 -40.08131 24581 ft 311 kts 48°
2026-04-22 23:51 -17.54278 -40.06424 24270 ft 309 kts 47°
2026-04-22 23:52 -17.52868 -40.04764 23969 ft 308 kts 47°
2026-04-22 23:52 -17.51442 -40.03086 23662 ft 307 kts 47°
2026-04-22 23:52 -17.50013 -40.01411 23303 ft 308 kts 47°
2026-04-22 23:52 -17.48587 -39.99733 22946 ft 308 kts 47°
2026-04-22 23:53 -17.47159 -39.98048 22593 ft 307 kts 47°
2026-04-22 23:53 -17.45745 -39.96383 22248 ft 306 kts 47°
2026-04-22 23:53 -17.44322 -39.94712 21904 ft 305 kts 47°
2026-04-22 23:53 -17.42787 -39.93231 21568 ft 303 kts 33°
2026-04-22 23:54 -17.40934 -39.92181 21226 ft 300 kts 25°
2026-04-22 23:54 -17.39042 -39.91245 20889 ft 298 kts 25°
2026-04-22 23:54 -17.37197 -39.90261 20558 ft 297 kts 27°
2026-04-22 23:54 -17.35386 -39.89248 20235 ft 295 kts 28°
2026-04-22 23:55 -17.33582 -39.88265 19909 ft 293 kts 27°
2026-04-22 23:55 -17.31760 -39.87290 19592 ft 291 kts 27°
2026-04-22 23:55 -17.29961 -39.86319 19277 ft 289 kts 28°
2026-04-22 23:55 -17.28203 -39.85363 18964 ft 286 kts 28°
2026-04-22 23:56 -17.26427 -39.84401 18656 ft 284 kts 28°
2026-04-22 23:56 -17.24670 -39.83454 18340 ft 282 kts 28°
2026-04-22 23:56 -17.22953 -39.82526 17981 ft 280 kts 28°
2026-04-22 23:56 -17.21216 -39.81586 17625 ft 278 kts 27°
2026-04-22 23:57 -17.19498 -39.80657 17277 ft 276 kts 27°
2026-04-22 23:57 -17.17801 -39.79740 16931 ft 274 kts 27°
2026-04-22 23:57 -17.16123 -39.78834 16593 ft 272 kts 27°
2026-04-22 23:57 -17.14437 -39.77923 16254 ft 270 kts 26°
2026-04-22 23:58 -17.12762 -39.77018 15916 ft 269 kts 26°
2026-04-22 23:58 -17.11117 -39.76130 15586 ft 267 kts 26°
2026-04-22 23:58 -17.09472 -39.75242 15258 ft 265 kts 26°
2026-04-22 23:58 -17.07832 -39.74357 14929 ft 264 kts 26°
2026-04-22 23:59 -17.06209 -39.73481 14611 ft 262 kts 25°
2026-04-22 23:59 -17.04594 -39.72610 14293 ft 260 kts 25°
2026-04-22 23:59 -17.02982 -39.71741 13979 ft 259 kts 25°
2026-04-22 23:59 -17.01450 -39.70806 13627 ft 258 kts 30°
2026-04-23 00:00 -16.98401 -39.68900 12917 ft 251 kts 28°
2026-04-23 00:00 -16.96915 -39.67972 12561 ft 248 kts 29°
2026-04-23 00:00 -16.95446 -39.67047 12219 ft 246 kts 29°
2026-04-23 00:01 -16.93976 -39.66123 11876 ft 243 kts 30°
2026-04-23 00:01 -16.92535 -39.65219 11537 ft 242 kts 30°
2026-04-23 00:01 -16.91096 -39.64315 11205 ft 240 kts 30°
2026-04-23 00:01 -16.89678 -39.63424 10876 ft 238 kts 30°
2026-04-23 00:02 -16.88246 -39.62526 10540 ft 237 kts 30°
2026-04-23 00:02 -16.86853 -39.61652 10223 ft 235 kts 30°
2026-04-23 00:02 -16.85454 -39.60774 9889 ft 234 kts 31°
2026-04-23 00:02 -16.84064 -39.59902 9527 ft 232 kts 31°
2026-04-23 00:03 -16.82670 -39.59027 9173 ft 231 kts 31°
2026-04-23 00:03 -16.81312 -39.58177 8828 ft 230 kts 31°
2026-04-23 00:03 -16.79942 -39.57317 8476 ft 229 kts 31°
2026-04-23 00:03 -16.78566 -39.56454 8134 ft 229 kts 32°
2026-04-23 00:04 -16.77200 -39.55598 7794 ft 228 kts 32°
2026-04-23 00:04 -16.75850 -39.54752 7460 ft 227 kts 32°
2026-04-23 00:04 -16.74505 -39.53909 7137 ft 226 kts 32°
2026-04-23 00:04 -16.73216 -39.52990 6805 ft 225 kts 39°
2026-04-23 00:05 -16.71977 -39.51987 6479 ft 224 kts 39°
2026-04-23 00:05 -16.70742 -39.51018 6278 ft 218 kts 38°
2026-04-23 00:05 -16.69535 -39.50072 6124 ft 213 kts 39°
2026-04-23 00:05 -16.68366 -39.49149 5973 ft 211 kts 39°
2026-04-23 00:06 -16.67208 -39.48230 5820 ft 209 kts 39°
2026-04-23 00:06 -16.66037 -39.47303 5669 ft 208 kts 39°
2026-04-23 00:06 -16.64893 -39.46399 5520 ft 207 kts 39°
2026-04-23 00:06 -16.63744 -39.45490 5374 ft 206 kts 39°
2026-04-23 00:07 -16.62609 -39.44592 5231 ft 206 kts 40°
2026-04-23 00:07 -16.61461 -39.43686 5087 ft 205 kts 40°
2026-04-23 00:07 -16.60323 -39.42786 4934 ft 205 kts 40°
2026-04-23 00:07 -16.59195 -39.41892 4790 ft 201 kts 40°
2026-04-23 00:08 -16.58093 -39.41020 4644 ft 198 kts 40°
2026-04-23 00:08 -16.57010 -39.40164 4501 ft 193 kts 40°
2026-04-23 00:08 -16.55954 -39.39333 4416 ft 186 kts 40°
2026-04-23 00:08 -16.54929 -39.38526 4337 ft 183 kts 40°
2026-04-23 00:09 -16.53908 -39.37719 4260 ft 180 kts 41°
2026-04-23 00:09 -16.52922 -39.36941 4186 ft 178 kts 41°
2026-04-23 00:09 -16.51931 -39.36159 4109 ft 178 kts 41°
2026-04-23 00:09 -16.51107 -39.35228 4024 ft 173 kts 66°
2026-04-23 00:10 -16.50773 -39.34044 3915 ft 172 kts 81°
2026-04-23 00:10 -16.50501 -39.32831 3764 ft 172 kts 78°
2026-04-23 00:10 -16.50184 -39.31635 3630 ft 172 kts 77°
2026-04-23 00:10 -16.49864 -39.30440 3435 ft 168 kts 78°
2026-04-23 00:11 -16.49552 -39.29282 3238 ft 165 kts 78°
2026-04-23 00:11 -16.49244 -39.28136 3040 ft 164 kts 78°
2026-04-23 00:11 -16.48933 -39.26980 2787 ft 165 kts 79°
2026-04-23 00:11 -16.48633 -39.25847 2536 ft 157 kts 79°
2026-04-23 00:12 -16.48363 -39.24820 2234 ft 138 kts 80°
2026-04-23 00:12 -16.48106 -39.23884 1935 ft 131 kts 79°
2026-04-23 00:12 -16.47857 -39.22977 1796 ft 134 kts 76°
2026-04-23 00:12 -16.47563 -39.22000 1801 ft 148 kts 78°
2026-04-23 00:13 -16.47279 -39.20931 1799 ft 159 kts 78°
2026-04-23 00:13 -16.46961 -39.19805 1802 ft 164 kts 77°
2026-04-23 00:13 -16.46664 -39.18649 1802 ft 165 kts 80°
2026-04-23 00:13 -16.46372 -39.17477 1797 ft 168 kts 78°
2026-04-23 00:14 -16.46059 -39.16306 1800 ft 168 kts 78°
2026-04-23 00:14 -16.45737 -39.15119 1676 ft 174 kts 78°
2026-04-23 00:14 -16.45414 -39.13903 1570 ft 177 kts 78°
2026-04-23 00:14 -16.45078 -39.12648 1386 ft 179 kts 77°
2026-04-23 00:15 -16.44791 -39.11512 992 ft 155 kts 78°
2026-04-23 00:15 -16.44569 -39.10477 678 ft 137 kts 76°
2026-04-23 00:15 -16.44262 -39.09601 462 ft 124 kts 71°
2026-04-23 00:15 -16.44028 -39.08776 216 ft 108 kts 79°
2026-04-23 00:16 -16.43854 -39.08096 189 ft 89 kts 74°
2026-04-23 00:16 -16.43719 -39.07608 196 ft 38 kts 78°
2026-04-23 00:16 -16.43656 -39.07360 191 ft 32 kts 76°
2026-04-23 00:16 -16.43621 -39.07240 195 ft 4 kts 71°
2026-04-23 00:17 -16.43624 -39.07230 189 ft 7 kts 132°
2026-04-23 00:17 -16.43644 -39.07215 189 ft 5 kts 93°
2026-04-23 00:17 -16.43620 -39.07203 189 ft 4 kts 310°
2026-04-23 00:17 -16.43620 -39.07228 195 ft 0 kts 255°
2026-04-23 00:18 -16.43620 -39.07229 195 ft 0 kts 255°
2026-04-23 00:18 -16.43622 -39.07235 193 ft 0 kts 259°
2026-04-23 00:18 -16.43623 -39.07243 196 ft 0 kts 261°
2026-04-23 00:19 -16.43631 -39.07277 195 ft 10 kts 253°
2026-04-23 00:20 -16.43655 -39.07373 191 ft 16 kts 252°
2026-04-23 00:20 -16.43691 -39.07495 199 ft 14 kts 253°
2026-04-23 00:20 -16.43717 -39.07596 191 ft 14 kts 253°
2026-04-23 00:20 -16.43735 -39.07648 194 ft 8 kts 227°
2026-04-23 00:21 -16.43803 -39.07652 195 ft 1 kts 164°
2026-04-23 00:21 -16.43803 -39.07651 194 ft 0 kts 163°
2026-04-23 00:22 -16.43806 -39.07651 193 ft 3 kts 163°
2026-04-23 00:22 -16.43830 -39.07644 195 ft 2 kts 166°
2026-04-23 00:22 -16.43839 -39.07641 191 ft 1 kts 153°
2026-04-23 00:23 -16.43844 -39.07636 196 ft 0 kts 112°
2026-04-23 00:23 -16.43845 -39.07622 189 ft 1 kts 96°
2026-04-23 00:23 -16.43847 -39.07615 189 ft 2 kts 117°
2026-04-23 00:23 -16.43854 -39.07606 197 ft 1 kts 147°
2026-04-23 00:24 -16.43859 -39.07605 195 ft 1 kts 178°
2026-04-23 00:24 -16.43867 -39.07608 192 ft 1 kts 199°
2026-04-23 00:24 -16.43873 -39.07609 189 ft 0 kts 181°
2026-04-23 00:24 -16.43877 -39.07611 189 ft 0 kts 206°
2026-04-23 00:25 -16.43879 -39.07612 189 ft 0 kts 224°
2026-04-23 00:25 -16.43879 -39.07613 189 ft 0 kts 244°
2026-04-23 00:25 -16.43881 -39.07618 196 ft 1 kts 249°
2026-04-23 00:25 -16.43882 -39.07621 195 ft 0 kts 262°
2026-04-23 00:26 -16.43882 -39.07623 194 ft 0 kts 277°
2026-04-23 00:26 -16.43882 -39.07624 194 ft 0 kts 306°
2026-04-23 00:26 -16.43878 -39.07628 192 ft 1 kts 322°
2026-04-23 00:26 -16.43877 -39.07628 191 ft 0 kts 334°